Weather History for Laredo, TX

Change the Weather History Date:

Monday, April 8, 2013

  Actual Average Record
Temperature  
Mean Temperature 86 °F 74 °F  
Max Temperature 99 °F 86 °F 110 °F (1989)
Min Temperature 72 °F 62 °F 38 °F (2007)
Degree Days  
Heating Degree Days 0 1  
Month to date heating degree days 0 8  
Since 1 July heating degree days 513 921  
Cooling Degree Days 21 10  
Month to date cooling degree days 77 75  
Year to date cooling degree days 446 333  
Growing Degree Days 34 (Base 50)    
Moisture  
Dew Point 63 °F    
Average Humidity 58    
Maximum Humidity 79    
Minimum Humidity 21    
Precipitation  
Precipitation 0.00 in 0.04 in 0.91 in (1909)
Month to date precipitation 0.01 0.28  
Year to date precipitation 0.76 3.24  
Sea Level Pressure  
Sea Level Pressure 29.66 in    
Wind  
Wind Speed 14 mph (SSE)    
Max Wind Speed 28 mph    
Max Gust Speed 32 mph    
Visibility 10 miles    
Events      
T = Trace of Precipitation, MM = Missing Value Source: NWS Daily Summary

Daily Weather History Graph

Daily Weather History Graph

Search for Another Location

Airport:

Trip Planner

Search our weather history database for the weather conditions in past years. The results will help you decide how hot, cold, wet, or windy it might be!

Date:

Astronomy

Apr. 08, 2013 Rise Set
Actual Time 7:20 AM CDT 7:59 PM CDT
Civil Twilight 6:56 AM CDT 8:22 PM CDT
Nautical Twilight 6:28 AM CDT 8:50 PM CDT
Astronomical Twilight 6:00 AM CDT 9:19 PM CDT
Moon 6:03 AM CDT (4/8) 6:39 PM CDT (4/8)
Length of Visible Light 13h 26m
Length of Day
12h 38m
Waning Crescent, 3% of the Moon is Illuminated
Apr 8
Waning Crescent
Apr 10
New
Apr 18
First Quarter
Apr 25
Full
May 2
Last Quarter

Hourly Weather History & Observations

Time (CDT) Temp. Heat Index Dew Point Humidity Pressure Visibility Wind Dir Wind Speed Gust Speed Precip Events Conditions
12:56 AM 72.9 °F - 63.0 °F 71% 29.75 in 10.0 mi SSE 17.3 mph 28.8 mph N/A   Clear
1:38 AM 73.4 °F - 62.6 °F 69% 29.77 in 10.0 mi South 24.2 mph 28.8 mph N/A   Mostly Cloudy
1:56 AM 72.9 °F - 63.9 °F 73% 29.73 in 10.0 mi SSE 23.0 mph - N/A   Overcast
2:56 AM 73.9 °F - 64.9 °F 73% 29.72 in 10.0 mi South 12.7 mph - N/A   Overcast
3:56 AM 73.9 °F - 64.9 °F 73% 29.69 in 10.0 mi SSE 17.3 mph - N/A   Overcast
4:56 AM 73.9 °F - 64.9 °F 73% 29.68 in 10.0 mi SSE 16.1 mph - N/A   Overcast
5:56 AM 72.9 °F - 63.9 °F 73% 29.69 in 10.0 mi SSE 11.5 mph - N/A   Overcast
6:56 AM 72.0 °F - 64.9 °F 78% 29.70 in 9.0 mi SE 10.4 mph - N/A   Overcast
7:56 AM 72.0 °F - 64.9 °F 78% 29.72 in 8.0 mi SE 10.4 mph - N/A   Overcast
8:56 AM 72.9 °F - 64.9 °F 76% 29.73 in 7.0 mi SSE 15.0 mph - N/A   Mostly Cloudy
9:56 AM 74.8 °F - 64.9 °F 71% 29.74 in 7.0 mi SSE 17.3 mph - N/A   Overcast
10:56 AM 77.0 °F - 65.8 °F 68% 29.75 in 8.0 mi SSE 15.0 mph - N/A   Overcast
11:56 AM 79.9 °F - 64.9 °F 60% 29.74 in 9.0 mi SSE 13.8 mph - N/A   Overcast
12:44 PM 82.4 °F 84.6 °F 66.2 °F 58% 29.74 in 9.0 mi South 13.8 mph 21.9 mph N/A   Scattered Clouds
12:56 PM 82.9 °F 85.0 °F 65.8 °F 56% 29.70 in 9.0 mi SSE 13.8 mph - N/A   Partly Cloudy
1:56 PM 86.9 °F 88.6 °F 64.9 °F 48% 29.66 in 10.0 mi SE 11.5 mph - N/A   Clear
2:56 PM 90.9 °F 91.6 °F 63.0 °F 39% 29.62 in 10.0 mi Variable 6.9 mph - N/A   Clear
3:56 PM 93.9 °F 93.6 °F 59.9 °F 32% 29.58 in 10.0 mi SE 5.8 mph - N/A   Clear
4:56 PM 97.9 °F - 52.9 °F 22% 29.55 in 10.0 mi Variable 3.5 mph - N/A   Clear
5:56 PM 97.9 °F - 52.9 °F 22% 29.53 in 10.0 mi East 8.1 mph - N/A   Clear
6:56 PM 97.9 °F - 52.0 °F 21% 29.53 in 10.0 mi ESE 9.2 mph - N/A   Clear
7:56 PM 91.9 °F 93.3 °F 63.9 °F 39% 29.55 in 10.0 mi ESE 23.0 mph 26.5 mph N/A   Clear
8:56 PM 86.9 °F 88.9 °F 65.8 °F 49% 29.57 in 10.0 mi SE 20.7 mph - N/A   Unknown
9:56 PM 82.9 °F 85.0 °F 65.8 °F 56% 29.60 in 10.0 mi SE 18.4 mph - N/A   Clear
10:56 PM 79.9 °F - 65.8 °F 62% 29.61 in 10.0 mi SE 21.9 mph 29.9 mph N/A   Clear
11:56 PM 75.9 °F - 66.9 °F 74% 29.63 in 10.0 mi SE 18.4 mph 24.2 mph N/A   Clear